Lake Charles, LA

11:41 PM CDT on July 26, 2017 (GMT -0500)
Chennault International

Weather History for KCWF - July, 2013

Change the Weather History Date:

Wednesday, July 17, 2013

  Actual Average Record
Temperature  
Mean Temperature 84 °F -  
Max Temperature 93 °F 90 °F 96 °F (1998)
Min Temperature 74 °F 76 °F 70 °F (2014)
Cooling Degree Days 18    
Growing Degree Days 34 (Base 50)    
Moisture  
Dew Point 73 °F    
Average Humidity 86    
Maximum Humidity 96    
Minimum Humidity 46    
Precipitation  
Precipitation 0.00 in - - ()
Sea Level Pressure  
Sea Level Pressure 30.15 in    
Wind  
Wind Speed 5 mph (ENE)    
Max Wind Speed 23 mph    
Max Gust Speed 40 mph    
Visibility 8 miles    
Events Rain , Thunderstorm    
Averages and records for this station are not official NWS values.
T = Trace of Precipitation, MM = Missing Value Source: NWS Daily Summary

Daily Weather History Graph

Daily Weather History Graph

Search for Another Location

Airport or City:

Trip Planner

Search our weather history database for the weather conditions in past years. The results will help you decide how hot, cold, wet, or windy it might be!

Date:

Astronomy

Jul. 17, 2013 Rise Set
Actual Time 6:22 AM CDT 8:14 PM CDT
Civil Twilight 5:55 AM CDT 8:41 PM CDT
Nautical Twilight 5:23 AM CDT 9:13 PM CDT
Astronomical Twilight 4:48 AM CDT 9:48 PM CDT
Moon 3:09 PM CDT (7/17) 1:22 AM CDT (7/17)
Length of Visible Light 14h 45m
Length of Day
13h 52m
Waxing Gibbous, 67% of the Moon is Illuminated
Jul 17
Waxing Gibbous
Jul 22
Full
Jul 29
Last Quarter
Aug 6
New
Aug 14
First Quarter

Hourly Weather History & Observations

Time (CDT) Temp. Heat Index Dew Point Humidity Pressure Visibility Wind Dir Wind Speed Gust Speed Precip Events Conditions
12:15 AM 77.5 °F - 74.7 °F 91% 30.16 in 10.0 mi ENE 4.6 mph - N/A   Scattered Clouds
12:35 AM 77.2 °F - 74.3 °F 91% 30.16 in 10.0 mi East 5.8 mph - N/A   Clear
12:55 AM 77.0 °F - 74.3 °F 91% 30.16 in 10.0 mi ENE 3.5 mph - N/A   Clear
1:15 AM 76.5 °F - 74.1 °F 92% 30.16 in 10.0 mi ENE 5.8 mph - N/A   Scattered Clouds
1:35 AM 76.3 °F - 73.9 °F 92% 30.16 in 10.0 mi East 4.6 mph - N/A   Scattered Clouds
1:55 AM 76.1 °F - 73.8 °F 92% 30.15 in 10.0 mi East 3.5 mph - N/A   Clear
2:15 AM 76.3 °F - 74.1 °F 93% 30.14 in 10.0 mi ENE 4.6 mph - N/A   Clear
2:35 AM 76.3 °F - 74.1 °F 93% 30.13 in 10.0 mi ENE 4.6 mph - N/A   Clear
2:55 AM 76.1 °F - 74.1 °F 94% 30.12 in 10.0 mi ENE 3.5 mph - N/A   Clear
3:15 AM 76.1 °F - 74.3 °F 94% 30.13 in 10.0 mi ENE 3.5 mph - N/A   Clear
3:35 AM 76.1 °F - 74.3 °F 94% 30.13 in 7.0 mi ENE 5.8 mph - N/A   Scattered Clouds
3:55 AM 76.1 °F - 74.3 °F 94% 30.13 in 7.0 mi ENE 3.5 mph - N/A   Scattered Clouds
4:15 AM 75.7 °F - 74.3 °F 95% 30.13 in 7.0 mi East 4.6 mph - N/A   Clear
4:35 AM 75.7 °F - 74.1 °F 95% 30.13 in 7.0 mi ENE 4.6 mph - N/A   Clear
4:55 AM 75.6 °F - 74.1 °F 95% 30.14 in 7.0 mi ENE 4.6 mph - N/A   Scattered Clouds
5:15 AM 75.4 °F - 74.1 °F 96% 30.15 in 7.0 mi ENE 4.6 mph - N/A   Scattered Clouds
5:35 AM 75.2 °F - 73.9 °F 96% 30.15 in 5.0 mi ENE 4.6 mph - N/A   Scattered Clouds
5:55 AM 75.4 °F - 74.3 °F 96% 30.15 in 5.0 mi NE 6.9 mph - N/A   Mostly Cloudy
6:00 AM 75.2 °F - 73.4 °F 94% 30.15 in 6.0 mi Calm Calm - N/A   Mostly Cloudy
6:15 AM 75.4 °F - 74.3 °F 96% 30.15 in 5.0 mi ENE 4.6 mph - N/A   Overcast
6:35 AM 75.4 °F - 74.3 °F 96% 30.15 in 5.0 mi ENE 4.6 mph - N/A Thunderstorm Scattered Clouds
6:55 AM 75.7 °F - 74.5 °F 96% 30.16 in 5.0 mi ENE 5.8 mph - N/A   Scattered Clouds
7:50 AM 77.0 °F - 75.2 °F 94% 30.18 in 5.0 mi East 6.9 mph - N/A   Mostly Cloudy
8:03 AM 78.8 °F - 75.2 °F 89% 30.19 in 7.0 mi ENE 4.6 mph - N/A   Scattered Clouds
8:50 AM 80.6 °F 86.2 °F 75.2 °F 84% 30.19 in 10.0 mi ENE 6.9 mph - N/A   Mostly Cloudy
9:50 AM 82.4 °F 88.2 °F 73.4 °F 74% 30.20 in 10.0 mi ENE 5.8 mph - N/A   Mostly Cloudy
10:50 AM 84.2 °F 90.9 °F 73.4 °F 70% 30.21 in 10.0 mi East 8.1 mph - N/A   Mostly Cloudy
11:50 AM 87.8 °F 95.6 °F 73.4 °F 62% 30.21 in 10.0 mi East 8.1 mph - N/A   Mostly Cloudy
1:50 PM 89.6 °F 94.7 °F 69.8 °F 52% 30.18 in 10.0 mi East 9.2 mph - N/A   Mostly Cloudy
2:50 PM 93.2 °F 98.8 °F 69.8 °F 46% 30.16 in 10.0 mi East 8.1 mph - N/A   Mostly Cloudy
3:50 PM 89.6 °F 94.7 °F 69.8 °F 52% 30.14 in 10.0 mi ESE 8.1 mph - N/A   Mostly Cloudy
4:50 PM 86.0 °F 91.8 °F 71.6 °F 62% 30.16 in 2.0 mi SE 23.0 mph 40.3 mph N/A Rain , Thunderstorm Heavy Thunderstorms and Rain
5:50 PM 77.0 °F - 69.8 °F 78% 30.14 in 10.0 mi Calm Calm - N/A   Scattered Clouds
6:50 PM 80.6 °F 84.6 °F 71.6 °F 74% 30.13 in 10.0 mi Calm Calm - N/A   Scattered Clouds
7:50 PM 78.8 °F - 71.6 °F 78% 30.13 in 10.0 mi Calm Calm - N/A   Clear
8:55 PM 78.8 °F - 71.6 °F 78% 30.15 in 10.0 mi Calm Calm - N/A   Clear
9:47 PM 75.2 °F - 73.4 °F 94% 30.15 in 10.0 mi Calm Calm - N/A   Clear
11:15 PM 76.5 °F - 73.4 °F 90% 30.16 in 10.0 mi Calm Calm - N/A   Clear
11:35 PM 74.7 °F - 72.7 °F 94% 30.16 in 10.0 mi Calm Calm - N/A   Clear
11:55 PM 74.7 °F - 72.9 °F 94% 30.16 in 10.0 mi Calm Calm - N/A   Clear